Location: Saint Louis
(38.6272°N, 90.1978°W)
Time: 20:41:55
(UTC-06:00)

Tiangong 1 - Visible Passes

Search period start: 16 January 2017 00:00
Search period end: 26 January 2017 00:00
Orbit: 344 x 365 km, 42.8° (Epoch: 16 January)

Date Brightness Start Highest point End Pass type
(mag) Time Alt. Az. Time Alt. Az. Time Alt. Az.
21 Jan 3.9 19:08:41 10° SSW 19:08:50 11° SSW 19:08:50 11° SSW visible
22 Jan 4.4 19:34:43 10° SW 19:34:47 10° SW 19:34:47 10° SW visible
23 Jan 2.2 18:25:58 10° SSW 18:28:30 26° SSE 18:29:01 24° SE visible
24 Jan 1.2 18:52:13 10° WSW 18:54:47 61° SW 18:54:47 61° SW visible
25 Jan 2.0 17:43:15 10° SW 17:45:59 33° SSE 17:48:41 10° E visible
25 Jan 3.3 19:19:05 10° W 19:20:29 24° W 19:20:29 24° W visible
